SL-16 DEB, 39886

Orbit data source: Space-Track

SL-16 DEB, 39886 is space debris in LEO originally from a launch on Fri, 26 Mar 1993 UTC launched from the Tyuratam Missile And Space Complex (TTMTR). Debris objects in space refer to the collection of defunct objects orbiting the Earth. Examples of debris include non-operational satellites, rocket bodies, and fragments generated from explosions, collisions, or faulty payload assembly.

Loading next visibility...
Identifier
39886, 1993-016BL
Orbit
LEO
Country
Flag of CISCIS
Related business
Manufacturer
Unknown
Mission
Spacecraft
Bus & Motor
Unknown
Mass
Unknown
Launch date (UTC)
1993-03-26 (33 years ago)
Launch vehicle
Unknown
Launch site
Tyuratam Missile And Space Complex (TTMTR)
Object type
Payload
Rocket body
Debris
Shape & HBR
Unknown shape, 0.1 m
Radar Cross Section
Small (<0.1 m²)

Expand to show TLE details & history
Last TLE update: 5 days ago

TLE from 5 days ago
0 SL-16 DEB
1 39886U 93016BL  26030.36858128  .00007549  00000-0  10422-2 0  9991
2 39886  71.0071 269.4285 0044034  84.9498 275.6681 14.77769176621925
Epoch: 2026-01-30T08:50Z
TLE epoch observation values (Epoch: 2026-01-30T08:50:45.422Z)
Latitude
-0.0001°
Longitude
7.13128°
Altitude
635.93 km
Speed
7.542 km/s
True Right ascension
17h 57m 42s
True Declination
0° 00' 00"
Sunlit
Object was in daylight at epoch
Visualization orbit readout
Latitude
Unknown
Longitude
Unknown
Altitude
Unknown
Speed
Unknown
Apparent Right ascension
Unknown
Apparent Declination
Unknown
Sunlit
N/A
Visualization observer readout
Local Sidereal Time
21:37:58
Azimuth
Unknown
Elevation
Unknown
Doppler factor
Unknown
Orbital elements
Apogee altitude
665.116 km
Perigee altitude
603.359 km
Semi-major axis
7,012.375 km
Eccentricity
0.0044
Inclination
71.0071°
RAAN
269.4285°
Arg. of periapsis
84.9498°
True anomaly
275.16571°
Mean anomaly
275.6681°
Eccentric anomaly
275.41693°
Mean motion
3.69612 °/min
Orbital period
97.4 mins
BSTAR
0.0010422
Loading maneuver chart data...
Computing Atmospheric mass density...
Loading historical data...
Loading historical data...
Loading historical data...
Loading historical data...
Loading historical data...
Loading historical data...
Loading historical data...

Documentation

Showing up to 5 results
|